Regional Weather Roundup
Issued by NWS

Home | Current Version | Previous Version | Graphics & Text | Print | Product List | Glossary On
Versions: 1 2 3 4 5 6 7 8 9 10 11 12 13 14 15 16 17 18 19 20 21 22 23 24 25 26 27 28 29 30 31 32 33 34 35 36 37 38 39 40 41 42 43 44 45 46 47 48 49 50
000
ASUS43 KMKX 171321
RWRWI

WISCONSIN REGIONAL WEATHER ROUNDUP
NATIONAL WEATHER SERVICE MILWAUKEE/SULLIVAN WI
800 AM CDT TUE OCT 17 2017

NOTE: "FAIR" INDICATES FEW OR NO CLOUDS BELOW 12,000 FEET WITH NO
SIGNIFICANT WEATHER AND/OR OBSTRUCTIONS TO VISIBILITY.

WIZ001-002-006>008-014>016-023>028-171400-
NORTHWEST WISCONSIN

CITY           SKY/WX    TMP DP  RH WIND       PRES   REMARKS
SUPERIOR ARPT  CLOUDY    42  38  88 CALM      29.97R
ASHLAND        CLEAR     47  38  71 SW9       29.97R
HAYWARD        CLEAR     33  31  92 CALM      30.00R
SIREN          CLOUDY    35  33  95 CALM      30.00S
CUMBERLAND     CLOUDY    36  34  93 S3        30.01R
RICE LAKE      CLOUDY    35  35  99 CALM      30.03S
CHETEK         CLOUDY    36  36 100 CALM      30.02S
LADYSMITH      CLOUDY    36  35  95 CALM      30.03R
EAU CLAIRE     CLOUDY    39  39 100 CALM      30.02R
MENOMONIE      CLOUDY    39  37  93 CALM      30.03R
NEW RICHMOND   CLOUDY    40  40  97 S3        30.01F
OSCEOLA        CLOUDY    38  38 100 CALM      30.03F
$$

WIZ003>005-009-010-017-018-171400-
NORTH CENTRAL WISCONSIN

CITY           SKY/WX    TMP DP  RH WIND       PRES   REMARKS
MANITOWISH WTR CLEAR     33  33 100 CALM      29.99R
ARBOR VITAE    CLEAR     37  35  96 CALM      30.00R
WOODRUFF       CLEAR     37  35  96 CALM      30.00R
RHINELANDER    CLOUDY    39  37  92 W6        30.01R WCI  35
EAGLE RIVER    CLOUDY    33  33 100 CALM      29.99R
LAND O LAKES   CLOUDY    32  32 100 CALM      30.00R
PHILLIPS       CLOUDY    35  35 100 CALM      30.00S
TOMAHAWK       CLOUDY    32  31  96 CALM      30.02R
MEDFORD        CLOUDY    39  35  86 CALM      30.01S
MERRILL        CLOUDY    32  32  99 CALM      30.02R
$$

WIZ029-030-035-036-043>047-171400-
CENTRAL WISCONSIN

CITY           SKY/WX    TMP DP  RH WIND       PRES   REMARKS
WAUSAU         CLOUDY    43  38  82 CALM      30.02R
MOSINEE        PTCLDY    39  37  93 CALM      30.04R
MARSHFIELD     CLEAR     45  37  73 W3        30.02R
STEVENS POINT  CLEAR     35  35 100 CALM      30.04R
WAUPACA        CLEAR     46  40  79 CALM      30.04R
WAUTOMA        CLEAR     37  36  96 CALM      30.06R
WISC RAPIDS    CLEAR     47  41  80 SW6       30.05R
CAMP DOUGLAS   NOT AVBL
$$

WIZ011>013-019>022-031-037>040-048>050-171400-
NORTHEAST WISCONSIN

CITY           SKY/WX    TMP DP  RH WIND       PRES   REMARKS
ANTIGO         CLOUDY    38  35  90 CALM      30.02R
SHAWANO        CLOUDY    45  39  79 CALM      30.02R
OCONTO         PTCLDY    47  39  74 W5        30.01R
STURGEON BAY   CLOUDY    52  41  66 SW12      30.01R
GREEN BAY      CLEAR     48  42  80 SW5       30.03R
MANITOWOC      CLEAR     54  40  59 W14G21    30.03R
APPLETON       PTCLDY    48  37  66 SW12      30.02R
CLINTONVILLE   CLOUDY    43  37  81 CALM      30.02R
OSHKOSH        CLEAR     48  40  73 SW9       30.05R
$$

WIZ032>034-041-042-053>061-171400-
SOUTHWEST WISCONSIN

CITY           SKY/WX    TMP DP  RH WIND       PRES   REMARKS
LA CROSSE      CLEAR     50  43  77 S7        30.05S
SPARTA         CLEAR     38  37  97 CALM      30.06S
VIROQUA        CLEAR     47  42  82 CALM      30.07S
BOSCOBEL       CLEAR     45  41  86 W3        30.11R
PRAIRIE DU CHI CLEAR     51  40  65 SW5       30.10R
PLATTEVILLE    CLEAR     49  42  77 SW8       30.13R
$$

WIZ056-057-062-063-064-067-068-171400-
SOUTH CENTRAL WISCONSIN

CITY           SKY/WX    TMP DP  RH WIND       PRES   REMARKS
REEDSBURG      CLEAR     49  40  70 SW7       30.08R
BARABOO/DELLS  CLEAR     50  39  66 SW10      30.07S
LONE ROCK      CLEAR     45  41  86 SW3       30.10R
MINERAL POINT  CLEAR     50  43  76 SW8       30.11R
MADISON        PTCLDY    53  40  61 SW8G17    30.10R
MIDDLETON      CLEAR     52  40  64 SW13      30.10S
WATERTOWN      CLEAR     49  42  75 SW9       30.11R
MONROE         CLEAR     46  39  76 SW17      30.12R
JANESVILLE     CLEAR     48  39  71 SW12      30.13R
$$

WIZ051-052-058>065-066-070>072-171400-
SOUTHEAST WISCONSIN

CITY           SKY/WX    TMP DP  RH WIND       PRES   REMARKS
MILWAUKEE      PTCLDY    53  40  61 SW14      30.11R
WAUKESHA       CLEAR     48  37  66 SW10      30.12R
MILWAUKEE/TIMM CLEAR     52  36  54 SW9       30.11R
RACINE         CLEAR     53  40  61 SW13G22   30.13R
BURLINGTON     CLEAR     51  42  72 SW13G18   30.14R
KENOSHA        CLEAR     53  40  61 SW15G22   30.13S
FOND DU LAC    CLEAR     49  38  65 SW10      30.06S
SHEBOYGAN      CLEAR     53  41  63 SW12G21   30.05S
WEST BEND      CLEAR     52  37  58 SW9G16    30.08S
JUNEAU         CLEAR     45  39  80 S8        30.10R
$$

LSZ147-162-171400-
LAKE SUPERIOR

STATION/POSITION TIME  TEMP    WIND        PRES    WAVE
                       AIR SEA DIR/SP/G            HT/PER
                 (UTC) (F)     (DEG/KT/KT) (MB)    (FT/S)
W MID LAKE BUOY  1150   54 53              1012.7R   3/ 5
DEVILS ISLAND    1200   54     240/ 14/ 16 1013.9R
PORT WING        1140          130/  3/  6 1014.6R
SAXON HARBOR     1240   45     200/  6/  7 1014.2R
$$

LMZ867-665-643>646-171400-
LAKE MICHIGAN

STATION/POSITION TIME  TEMP    WIND        PRES    WAVE
                       AIR SEA DIR/SP/G            HT/PER
                 (UTC) (F)     (DEG/KT/KT) (MB)    (FT/S)
S GREEN BAY BUOY 1300   54 58  220/ 17/ 21 1015.7
N MID LAKE BUOY  1250   56 60  250/ 21/ 25 1014.9R   6/ 6
NORTHPORT PIER   1240   54     240/  5/ 14 1014.6R
KEWAUNEE LAKESHO 1254   53     260/ 11/ 15 1015.5R
SHEBOYGAN LAKESH 1300   54     250/ 18/ 21 1017.2R
PORT WASHINGTON  1230   55     260/ 13/ 20 1019.0R
MILWAUKEE LAKESH 1300   54     240/ 17/ 21   N/A
S MID LAKE BUOY  1150   60 62  250/ 21/ 27 1020.3F   5/ 5
KENOSHA   LAKESH 1200   53     230/ 12/ 19 1020.0
$$

TC  - TEMPERATURE IN CELSIUS
VSB - VISIBILITY IN STATUTE MILES
WCI - WIND CHILL INDEX
HX  - HEAT INDEX





USA.gov is the U.S. government's official web portal to all federal, state and local government web resources and services.